Preview of NWS' New Version of Forecast
This preview is not operational and should not be used for support decisions.

Regional Weather Roundup (RWR)

Issued by National Weather Service (NWS)

                            
000
ASCA42 TJSJ 170710
RWRPR 
PUERTO RICO/U.S. VIRGIN ISLANDS HOURLY WEATHER ROUNDUP
NATIONAL WEATHER SERVICE SAN JUAN PR
300 AM AST FRI MAY 17 2019

PRZ001>002-007>008-010-170800-
PUERTO RICO
  
CITY           SKY/WX    TMP DP  RH WIND       PRES   REMARKS
SAN JUAN LMM   CLEAR     81  72  74 VRB5      29.96F                  
CEIBA          MOCLDY    81  73  78 E5        29.98S                  
$$

VIZ001>002-170800-
U.S. VIRGIN ISLANDS
  
CITY           SKY/WX    TMP DP  RH WIND       PRES   REMARKS
CHARLOTTE AMA    N/A    N/A N/A N/A MISG      29.95F                  
CHRISTIANSTED  CLEAR     75  72  88 NE6       29.97F                  
$$

HOURLY WEATHER ROUNDUP FOR THE NEWS MEDIA
  
CITY           SKY/WX    TMP DP  RH WIND       PRES   REMARKS
ORLANDO        FAIR      69  62  78 CALM      30.02F                  
NEW YORK       MOCLDY    56  52  86 S7        29.85F                  
NEWARK         MOCLDY    61  48  62 SW9       29.84F                  
CHICAGO        MOCLDY    64  60  87 W6        29.73F                  
HARTFORD       FAIR      43  43 100 CALM      29.85F FOG              
BOSTON         FAIR      52  47  83 CALM      29.84F                  
DALLAS         CLOUDY    75  61  61 S15       29.89S                  
PHILADELPHIA   FAIR      60  53  77 SW5       29.86F                  
LOS ANGELES    PTCLDY    60  47  61 NW3       29.97R                  
WASHINGTON DC  MOCLDY    52  50  93 CALM      29.86F